Tracking 21605 objects as of 26-Oct-2020
HD Live streaming from Space Station
objects crossing your sky now

COSMOS 2300

Track COSMOS 2300 now!
10-day predictions
COSMOS 2300 is classified as:


NORAD ID: 23442
Int'l Code: 1994-086B
Perigee: 1,417.4 km
Apogee: 1,420.2 km
Inclination: 82.6 °
Period: 114.0 minutes
Semi major axis: 7789 km
RCS: 1.1654 m2 (large)
Launch date: December 26, 1994
Source: Commonwealth of Independent States (former USSR) (CIS)
Launch site: PLESETSK MISSILE AND SPACE COMPLEX (PKMTR)
aabbcc
Your satellite tracking list
Your tracking list is empty




NASA's NSSDC Master Catalog

Two Line Element Set (TLE):
1 23442U 94086B   20300.20927389 +.00000006 +00000-0 -24542-4 0  9995
2 23442 082.5654 182.0324 0001791 223.3999 257.1235 12.62742924190590
Source of the keplerian elements: AFSPC